Hourly Data Report for May 23, 2018

DRYDEN REGIONAL
ONTARIO
Current Station Operator: NAVCAN

49°49'39.000" N
92°44'39.000" W
412.70 m
6032125
71527
YHD

Download Data

Hourly Data (May 2018)
Hourly Data Report for May 23, 2018
TIME
LST
Temp Definition
°C
Dew Point Definition
°C
Rel Hum Definition
%
Precip. Amount Definition
mm

Wind Dir Definition
10's deg

Wind Spd Definition
km/h
Visibility Definition
km
Stn Press Definition
kPa
Hmdx Definition


Wind Chill Definition


Weather Definition


00:00 17.3 4.9 44 0.0 26 8 16.1 96.83     LegendNANA
01:00 16.1 4.6 46 0.0 25 5 16.1 96.85     LegendNANA
02:00 14.9 5.5 53 0.0 26 4 16.1 96.87     LegendNANA
03:00 14.1 6.8 61 0.0 23 9 16.1 96.90     LegendNANA
04:00 13.9 9.0 72 0.0 20 8 16.1 96.94     LegendNANA
05:00 11.5 9.7 89 0.0   0 16.1 96.97     LegendNANA
06:00 13.1 8.4 73 0.0 18 11 16.1 97.04     LegendNANA
07:00 15.2 9.6 69 0.0 20 9 16.1 97.12     LegendNANA
08:00 19.4 9.4 52 0.0 24 8 16.1 97.09     LegendNANA
09:00 22.2 9.5 44 0.0 26 5 16.1 97.09     LegendNANA
10:00 24.2 9.6 39 0.0 LegendMM 9 16.1 97.06 25   LegendNANA
11:00 26.0 6.6 29 0.0 LegendMM 9 14.5 96.99 26   LegendNANA
12:00 26.4 6.4 27 0.0 LegendMM 5 16.1 96.99 26   LegendNANA
13:00 26.8 6.1 26 0.0 LegendMM 5 16.1 96.94 26   LegendNANA
14:00 27.4 6.4 26 0.0 19 11 16.1 96.95 27   LegendNANA
15:00 28.2 6.6 25 0.0 LegendMM 17 16.1 96.88 28   LegendNANA
16:00 28.3 6.6 25 0.0 23 13 16.1 96.83 28   LegendNANA
17:00 28.2 7.7 27 0.0 LegendMM 9 16.1 96.80 28   LegendNANA
18:00 27.6 7.7 28 0.0 20 17 16.1 96.81 28   LegendNANA
19:00 26.5 8.7 32 0.0 20 11 16.1 96.79 27   LegendNANA
20:00 24.3 8.9 37 0.0 19 8 16.1 96.80 25   LegendNANA
21:00 22.8 9.4 42 0.0 18 9 16.1 96.81     LegendNANA
22:00 22.2 9.9 45 0.0 17 8 16.1 96.82     LegendNANA
23:00 18.1 14.1 77 0.0 11 4 16.1 96.80     LegendNANA

Notes on Data Quality.

Legend

  • E = Estimated
  • M = Missing
  • NA = Not Available*
  • [empty] = Indicates an unobserved value
Date modified: